[[{"header":{"parameterUnit":"m.s-1","parameterCategory":1,"la1":30.2991,"la2":30.254,"lo1":-89.0895,"lo2":-89.0444,"dy":0.0017,"dx":0.0017,"nx":28,"ny":28,"refTime":"2025-04-24T09:00:00:Z","depth":0,"parameterNumber":2,"parameterNumberName":"U-component_of_WINDS"},"data":[0,0,0,0,0,0,0,0,0,0,0,0,0,0,0,0,0,0,0,0,0,0,0,0,0,0,0,0,0,0,0,0,0,0,0,0,0,0,0,0,0,0,0,0,0,0,0,0,0,0,0,0,0,0,0,0,0,0,-1.4309,-1.431,0,-1.4397,-1.4398,-1.4399,-1.4429,-1.4429,-1.4428,-1.4428,-1.4521,-1.4524,-1.4526,0,0,0,0,0,0,0,0,0,0,0,0,0,-1.4168,-1.4171,-1.4309,-1.431,-1.4311,-1.4397,-1.4398,-1.4399,-1.4429,-1.4429,-1.4428,-1.4428,-1.452,-1.4523,-1.4527,0,0,0,0,0,0,0,0,0,0,0,0,0,-1.424,-1.4171,-1.4308,-1.4336,-1.4339,-1.4397,-1.4398,-1.44,-1.4429,-1.4429,-1.4428,-1.4427,-1.4519,-1.4523,-1.4527,-1.4564,0,0,-1.454,-1.4542,0,0,0,0,0,0,0,0,-1.4236,-1.4245,-1.4331,-1.4334,-1.4338,-1.4401,-1.4383,-1.4455,-1.4429,-1.4395,-1.4428,-1.4427,-1.4482,-1.4489,-1.4507,-1.4569,-1.4573,-1.454,-1.4543,-1.4545,-1.4546,0,0,0,0,0,0,0,-1.4231,-1.4242,-1.4344,-1.4332,-1.4336,-1.4345,-1.4354,-1.4397,-1.4441,-1.4398,-1.44,-1.441,-1.4484,-1.4503,-1.4509,-1.4574,-1.454,-1.4544,-1.4547,-1.4548,-1.4672,-1.4673,0,0,0,0,0,0,-1.4221,-1.4237,-1.4341,-1.4346,-1.4285,-1.4348,-1.4359,-1.4382,-1.444,-1.4448,-1.4411,-1.4411,-1.4496,-1.4504,-1.4513,-1.4561,-1.4545,-1.4549,-1.4551,-1.4672,-1.4673,-1.4673,0,0,0,0,0,0,-1.4218,-1.423,-1.4337,-1.4293,-1.4307,-1.4351,-1.4377,-1.4384,-1.4403,-1.445,-1.4458,-1.4422,-1.4496,-1.4507,-1.4551,-1.4564,-1.4551,-1.4555,-1.4671,-1.4672,-1.4673,-1.4657,0,0,0,0,0,0,-1.4214,-1.4229,-1.4243,-1.4293,-1.4309,-1.4374,-1.4377,-1.4386,-1.441,-1.4411,-1.4462,-1.447,-1.4496,-1.4545,-1.4556,-1.457,-1.4558,-1.467,-1.4671,-1.4673,-1.4656,-1.4657,-1.4658,0,0,0,0,0,-1.4209,-1.4235,-1.4243,-1.4255,-1.4327,-1.4374,-1.4384,-1.4412,-1.4411,-1.4425,-1.4456,-1.4469,-1.4561,-1.4549,-1.4562,-1.4577,-1.4669,-1.4671,-1.4673,-1.4656,-1.4657,-1.4658,0,0,0,0,0,0,-1.4186,-1.4242,-1.4252,-1.4294,-1.4329,-1.4379,-1.4398,-1.4412,-1.4449,-1.4449,-1.4483,-1.4495,-1.4537,-1.4562,-1.4547,-1.4617,-1.4616,-1.462,-1.4599,-1.46,-1.4601,-1.4594,-1.4561,0,0,0,0,0,-1.4185,-1.4218,-1.4266,-1.4299,-1.4316,-1.4354,-1.4376,-1.4395,-1.4432,-1.4447,-1.4481,-1.4518,-1.4556,-1.458,-1.4617,-1.466,-1.4672,-1.4677,-1.4678,-1.4678,-1.4682,-1.4707,-1.471,-1.4679,-1.4679,-1.4679,0,0,-1.4185,-1.422,-1.4239,-1.4295,-1.4324,-1.4358,-1.4366,-1.4402,-1.4428,-1.4453,-1.4497,-1.4523,-1.4567,-1.4611,-1.4633,-1.4633,-1.4693,-1.4681,-1.4681,-1.4684,-1.4709,-1.4712,-1.4715,-1.468,-1.468,-1.468,0,0,-1.4203,-1.4232,-1.4263,-1.4292,-1.4336,-1.4362,-1.4369,-1.4417,-1.4435,-1.448,-1.45,-1.4532,-1.4596,-1.4626,-1.465,-1.468,-1.4694,-1.4691,-1.4695,-1.472,-1.4722,-1.4725,-1.4736,-1.4739,-1.4694,-1.4694,-1.4694,0,-1.4198,-1.4248,-1.4278,-1.4312,-1.4337,-1.4361,-1.4393,-1.4421,-1.4475,-1.4492,-1.4492,-1.4573,-1.4604,-1.4656,-1.4663,-1.4682,-1.4692,-1.4685,-1.4719,-1.4722,-1.4725,-1.4736,-1.474,-1.4694,-1.4694,-1.4694,-1.4694,0,-1.424,-1.4275,-1.4295,-1.4346,-1.4373,-1.4406,-1.4442,-1.4466,-1.4483,-1.4508,-1.4554,-1.4593,-1.4638,-1.4652,-1.4669,-1.4707,-1.4706,-1.4712,-1.4712,-1.4727,-1.4738,-1.4742,-1.4693,-1.4693,-1.4693,-1.4694,0,0,-1.4245,-1.4311,-1.4318,-1.4342,-1.4393,-1.4421,-1.4456,-1.45,-1.452,-1.4557,-1.4588,-1.4642,-1.4648,-1.4675,-1.4696,-1.4717,-1.4739,-1.4721,-1.4723,-1.4723,-1.4784,-1.4779,-1.4783,-1.4749,-1.475,-1.4751,-1.4781,0,-1.4269,-1.4331,-1.4358,-1.4409,-1.4442,-1.4466,-1.4497,-1.4532,-1.4557,-1.459,-1.4619,-1.4656,-1.4661,-1.4678,-1.4701,-1.4732,-1.4752,-1.473,-1.4779,-1.478,-1.4766,-1.4789,-1.4784,-1.481,-1.4785,-1.4786,-1.4786,0,-1.4304,-1.4341,-1.4394,-1.4441,-1.4456,-1.4483,-1.4526,-1.4557,-1.4598,-1.4615,-1.4645,-1.4665,-1.4704,-1.4701,-1.4756,-1.474,-1.4762,-1.4781,-1.4783,-1.4788,-1.4784,-1.4795,-1.4819,-1.4823,-1.4793,-1.4793,-1.4792,0,-1.4303,-1.4365,-1.4405,-1.4424,-1.448,-1.4499,-1.4523,-1.4563,-1.4588,-1.4626,-1.4643,-1.4685,-1.4709,-1.4741,-1.4773,-1.4768,-1.4825,-1.4824,-1.4841,-1.484,-1.4851,-1.485,-1.4879,-1.4865,-1.4865,-1.4865,-1.4865,0,-1.4326,-1.4358,-1.4405,-1.4429,-1.4466,-1.4498,-1.4534,-1.456,-1.4596,-1.4627,-1.4651,-1.468,-1.472,-1.4754,-1.4779,-1.4821,-1.4831,-1.4847,-1.4853,-1.4845,-1.4843,-1.4859,-1.4858,-1.4866,-1.4866,-1.4866,-1.4866,0,-1.433,-1.4363,-1.4408,-1.4457,-1.447,-1.4495,-1.4538,-1.4564,-1.459,-1.4629,-1.4641,-1.4683,-1.4725,-1.4759,-1.4814,-1.4831,-1.4875,-1.4882,-1.486,-1.4864,-1.4878,-1.4876,-1.4918,-1.4926,-1.4907,-1.4907,-1.4907,0,-1.4343,-1.4368,-1.442,-1.4442,-1.4466,-1.4501,-1.4526,-1.456,-1.4585,-1.4634,-1.4654,-1.4697,-1.4733,-1.4799,-1.4835,-1.4878,-1.4887,-1.4899,-1.4893,-1.4884,-1.4887,-1.4885,-1.4888,-1.4899,-1.4899,-1.4899,-1.4899,0,-1.4362,-1.4377,-1.4412,-1.4453,-1.4483,-1.4517,-1.4552,-1.4569,-1.4609,-1.4637,-1.4679,-1.4707,-1.4763,-1.4806,-1.4853,-1.4879,-1.4896,-1.49,-1.4906,-1.4898,-1.4884,-1.4892,-1.4862,-1.4899,-1.4899,-1.4899,-1.4899,-1.4899,-1.4372,-1.4395,-1.4435,-1.4474,-1.4503,-1.4535,-1.4562,-1.4592,-1.4627,-1.4675,-1.4693,-1.4736,-1.4778,-1.4842,-1.4869,-1.4904,-1.4906,-1.4915,-1.4917,-1.4919,-1.4917,-1.4879,-1.4913,-1.4913,-1.4913,-1.4913,-1.4913,0,-1.4392,-1.4419,-1.4454,-1.4502,-1.4533,-1.4545,-1.4585,-1.461,-1.4647,-1.4684,-1.4719,-1.4769,-1.4811,-1.485,-1.4895,-1.4915,-1.4924,-1.4926,-1.4925,-1.4931,-1.4913,-1.4903,-1.4918,-1.4918,-1.4918,-1.4918,-1.4918,-1.4918,-1.4407,-1.4447,-1.4467,-1.4522,-1.455,-1.4592,-1.4613,-1.4644,-1.4673,-1.4727,-1.4761,-1.4787,-1.4825,-1.4873,-1.4912,-1.4923,-1.4938,-1.4938,-1.4951,-1.4933,-1.4932,-1.4931,-1.4922,-1.4941,-1.4941,-1.4966,-1.4966,-1.4966]},{"header":{"parameterUnit":"m.s-1","parameterCategory":1,"la1":30.2991,"la2":30.254,"lo1":-89.0895,"lo2":-89.0444,"dy":0.0017,"dx":0.0017,"nx":28,"ny":28,"refTime":"2025-04-24T09:00:00:Z","depth":0,"parameterNumber":3,"parameterNumberName":"V-component_of_WINDS"},"data":[0,0,0,0,0,0,0,0,0,0,0,0,0,0,0,0,0,0,0,0,0,0,0,0,0,0,0,0,0,0,0,0,0,0,0,0,0,0,0,0,0,0,0,0,0,0,0,0,0,0,0,0,0,0,0,0,0,0,2.9442,2.9442,0,2.948,2.9481,2.9481,2.9452,2.9451,2.9449,2.9448,2.9485,2.9487,2.9489,0,0,0,0,0,0,0,0,0,0,0,0,0,2.9341,2.9343,2.9442,2.9442,2.9443,2.948,2.9481,2.9481,2.9452,2.9451,2.9449,2.9448,2.9484,2.9487,2.9489,0,0,0,0,0,0,0,0,0,0,0,0,0,2.9383,2.9344,2.9442,2.9433,2.9432,2.948,2.9481,2.9481,2.9452,2.9451,2.9449,2.9447,2.9483,2.9487,2.949,2.9548,0,0,2.95,2.9501,0,0,0,0,0,0,0,0,2.9381,2.9387,2.9434,2.9434,2.9433,2.9459,2.9459,2.9504,2.9453,2.9445,2.9448,2.9446,2.9478,2.9481,2.9493,2.9549,2.9551,2.95,2.9502,2.9503,2.9504,0,0,0,0,0,0,0,2.9378,2.9385,2.9457,2.9434,2.9434,2.9426,2.943,2.9467,2.9471,2.9445,2.9443,2.9448,2.9477,2.949,2.9493,2.9551,2.95,2.9503,2.9505,2.9506,2.9658,2.966,0,0,0,0,0,0,2.9376,2.9383,2.9456,2.9458,2.9402,2.943,2.9434,2.9453,2.9471,2.9472,2.945,2.9447,2.9485,2.949,2.9495,2.9564,2.9503,2.9506,2.9508,2.9656,2.9659,2.9661,0,0,0,0,0,0,2.9374,2.9383,2.9454,2.942,2.9428,2.9433,2.9455,2.9455,2.9467,2.9474,2.9475,2.9462,2.9484,2.949,2.9535,2.9565,2.9508,2.9511,2.9653,2.9657,2.966,2.9703,0,0,0,0,0,0,2.9371,2.9382,2.9405,2.9421,2.943,2.9495,2.9457,2.9457,2.9473,2.9469,2.9486,2.9487,2.9483,2.953,2.9538,2.9568,2.9513,2.9651,2.9655,2.9659,2.9698,2.9707,2.9714,0,0,0,0,0,2.9368,2.9415,2.9406,2.9415,2.9459,2.9496,2.9502,2.9497,2.9475,2.9498,2.9503,2.9486,2.956,2.9535,2.9544,2.9575,2.9649,2.9654,2.9658,2.9695,2.9705,2.9714,0,0,0,0,0,0,2.9401,2.9416,2.9407,2.946,2.9478,2.9491,2.9519,2.9508,2.9531,2.9526,2.9519,2.9523,2.957,2.9577,2.9549,2.9632,2.9601,2.9608,2.9626,2.9636,2.9643,2.964,2.9516,0,0,0,0,0,2.9414,2.9445,2.9456,2.9502,2.9511,2.9514,2.953,2.9526,2.9542,2.9549,2.9557,2.9574,2.9601,2.9619,2.9644,2.97,2.9703,2.9725,2.9733,2.9739,2.9745,2.9775,2.9786,2.9676,2.9676,2.9676,0,0,2.9442,2.9455,2.9474,2.9509,2.9522,2.9553,2.952,2.9554,2.9577,2.9554,2.9597,2.9604,2.9622,2.9673,2.9695,2.968,2.9776,2.9745,2.975,2.9753,2.9781,2.9792,2.9801,2.9679,2.9679,2.9678,0,0,2.9509,2.9522,2.9562,2.9576,2.9596,2.9597,2.9607,2.9623,2.9627,2.9671,2.9654,2.9681,2.9728,2.9741,2.9754,2.9828,2.9814,2.9836,2.9876,2.9906,2.9915,2.9922,2.9949,2.9958,2.9842,2.9842,2.9842,0,2.9542,2.9588,2.9584,2.9619,2.9635,2.9617,2.9658,2.9671,2.9698,2.9709,2.9691,2.975,2.9761,2.9815,2.9833,2.9844,2.9855,2.9834,2.9914,2.9922,2.9929,2.9954,2.9964,2.9845,2.9845,2.9844,2.9844,0,2.9627,2.966,2.9689,2.9717,2.9736,2.9774,2.9775,2.9795,2.9789,2.9792,2.9837,2.985,2.9877,2.989,2.9883,2.9943,2.9933,2.9915,2.9883,2.9942,2.9965,2.9975,2.9849,2.9848,2.9847,2.9846,0,0,2.9715,2.9741,2.9752,2.9764,2.9785,2.981,2.9847,2.9876,2.9893,2.9912,2.9943,2.9984,2.9967,2.9982,2.9977,3.0004,3.0062,2.9982,2.9983,2.9997,3.0129,3.0142,3.0153,3.0053,3.0054,3.0056,3.0127,0,2.9783,2.9848,2.9846,2.9907,2.9937,2.9921,2.9953,2.9969,2.9974,3.0,3.0004,3.0033,3.001,3.0019,3.0044,3.0049,3.0088,3.0044,3.0081,3.0082,3.0076,3.0165,3.0179,3.0246,3.0136,3.0138,3.0139,0,2.9871,2.9895,2.9959,2.9977,2.9989,3.0018,3.0044,3.0069,3.0088,3.0089,3.0107,3.0098,3.0135,3.0103,3.0154,3.0124,3.0139,3.0144,3.0147,3.015,3.0114,3.017,3.0267,3.0277,3.0153,3.0152,3.0151,0,2.9929,2.9977,3.0021,3.0033,3.0054,3.0075,3.0085,3.0102,3.0119,3.0142,3.0153,3.0179,3.0194,3.0214,3.0213,3.019,3.0265,3.0232,3.0267,3.0267,3.0283,3.0282,3.0383,3.0293,3.0293,3.0292,3.0292,0,3.0005,3.0045,3.0048,3.0075,3.012,3.0116,3.016,3.0168,3.0183,3.0211,3.0199,3.0225,3.0222,3.0249,3.0248,3.0291,3.0297,3.0299,3.0298,3.03,3.03,3.0309,3.0305,3.0295,3.0294,3.0294,3.0293,0,3.0077,3.008,3.0128,3.0146,3.0151,3.0183,3.0197,3.0223,3.0227,3.0263,3.0271,3.0277,3.0308,3.0309,3.0344,3.0344,3.0396,3.039,3.039,3.0389,3.0423,3.042,3.0534,3.0548,3.0449,3.045,3.0451,0,3.0125,3.0156,3.0177,3.0195,3.0207,3.0237,3.0255,3.0253,3.0272,3.0296,3.0319,3.035,3.0374,3.0424,3.0431,3.0458,3.0453,3.0491,3.0456,3.0458,3.0453,3.0451,3.0455,3.0497,3.0498,3.0499,3.05,0,3.0211,3.0211,3.0238,3.0267,3.0289,3.0311,3.0331,3.0347,3.0347,3.0369,3.0402,3.042,3.0457,3.0487,3.0514,3.0523,3.0512,3.0511,3.052,3.0522,3.0521,3.0522,3.0408,3.0508,3.0507,3.0507,3.0506,3.0506,3.0272,3.0299,3.0318,3.0349,3.0364,3.0384,3.0409,3.0417,3.0444,3.0475,3.0472,3.0508,3.0526,3.056,3.0572,3.06,3.0587,3.06,3.0604,3.0607,3.0611,3.0517,3.0605,3.0604,3.0604,3.0604,3.0604,0,3.0357,3.0369,3.0398,3.0427,3.0451,3.044,3.0461,3.0482,3.0514,3.0533,3.0557,3.0594,3.0624,3.0634,3.0662,3.0683,3.0678,3.069,3.0688,3.0691,3.0621,3.061,3.0693,3.0693,3.0693,3.0693,3.0693,3.0693,3.0404,3.0449,3.0452,3.0504,3.0516,3.0552,3.0565,3.0583,3.0598,3.064,3.0665,3.0672,3.0687,3.0716,3.0743,3.0745,3.0756,3.077,3.077,3.0705,3.0696,3.0687,3.0677,3.0773,3.0773,3.0838,3.0839,3.0839]}]]